TKJ569 LTAC-OEMA

Flight info

Callsign TKJ569
Flight time 2h 56m
Altitude 39000
Route HALIL UW77 HISAR UL620 OKLAM DCT TOMBI M855 RASDA A16 CVO L315 HGD M872 BOVET
Aircraft B738/M-SDE2E3FGHIRWXY/LB1

Departure

Time 2026-04-20 19:31
Airport Esenboğa International Airport (LTAC)

Arrival

Time 2026-04-20 22:27
Airport Prince Mohammad Bin Abdulaziz Airport (OEMA)
Time Latitude Longitude Altitude Speed Heading
2026-04-20 18:47 40.11719 32.99623 3133 ft 0 kts 182°
2026-04-20 19:17 40.11724 32.99623 3133 ft 4 kts 182°
2026-04-20 19:18 40.11747 32.99625 3133 ft 4 kts 189°
2026-04-20 19:18 40.11770 32.99632 3133 ft 4 kts 206°
2026-04-20 19:18 40.11786 32.99649 3133 ft 4 kts 255°
2026-04-20 19:18 40.11787 32.99656 3133 ft 1 kts 268°
2026-04-20 19:22 40.11787 32.99632 3133 ft 6 kts 268°
2026-04-20 19:22 40.11784 32.99549 3133 ft 12 kts 267°
2026-04-20 19:22 40.11778 32.99478 3133 ft 7 kts 262°
2026-04-20 19:22 40.11770 32.99413 3133 ft 7 kts 259°
2026-04-20 19:23 40.11758 32.99344 3133 ft 8 kts 252°
2026-04-20 19:23 40.11738 32.99269 3133 ft 9 kts 249°
2026-04-20 19:23 40.11714 32.99195 3133 ft 9 kts 247°
2026-04-20 19:23 40.11730 32.99125 3133 ft 9 kts 323°
2026-04-20 19:24 40.11781 32.99078 3133 ft 10 kts 311°
2026-04-20 19:24 40.11839 32.99035 3133 ft 12 kts 25°
2026-04-20 19:24 40.11920 32.99114 3133 ft 17 kts 36°
2026-04-20 19:24 40.12030 32.99219 3133 ft 22 kts 36°
2026-04-20 19:25 40.12159 32.99340 3133 ft 23 kts 36°
2026-04-20 19:25 40.12284 32.99463 3133 ft 22 kts 37°
2026-04-20 19:25 40.12407 32.99579 3133 ft 22 kts 36°
2026-04-20 19:25 40.12526 32.99693 3133 ft 21 kts 36°
2026-04-20 19:26 40.12643 32.99804 3133 ft 20 kts 36°
2026-04-20 19:26 40.12755 32.99911 3133 ft 20 kts 36°
2026-04-20 19:26 40.12863 33.00014 3133 ft 19 kts 36°
2026-04-20 19:26 40.12967 33.00114 3133 ft 18 kts 36°
2026-04-20 19:27 40.13068 33.00211 3133 ft 18 kts 36°
2026-04-20 19:27 40.13167 33.00305 3133 ft 17 kts 36°
2026-04-20 19:27 40.13261 33.00395 3134 ft 17 kts 36°
2026-04-20 19:27 40.13352 33.00482 3134 ft 16 kts 36°
2026-04-20 19:28 40.13440 33.00566 3134 ft 15 kts 36°
2026-04-20 19:28 40.13525 33.00646 3134 ft 15 kts 37°
2026-04-20 19:28 40.13615 33.00733 3133 ft 19 kts 36°
2026-04-20 19:28 40.13734 33.00847 3133 ft 24 kts 36°
2026-04-20 19:29 40.13876 33.00983 3133 ft 25 kts 36°
2026-04-20 19:29 40.14026 33.01074 3134 ft 24 kts 351°
2026-04-20 19:29 40.14120 33.00918 3135 ft 23 kts 298°
2026-04-20 19:29 40.14187 33.00800 3133 ft 15 kts 306°
2026-04-20 19:30 40.14203 33.00685 3132 ft 15 kts 223°
2026-04-20 19:30 40.14057 33.00543 3132 ft 53 kts 216°
2026-04-20 19:30 40.13581 33.00087 3134 ft 115 kts 216°
2026-04-20 19:30 40.12786 32.99328 3139 ft 166 kts 214°
2026-04-20 19:31 40.11781 32.98390 3513 ft 183 kts 214°
2026-04-20 19:31 40.10768 32.97453 4484 ft 173 kts 217°
2026-04-20 19:31 40.09801 32.96544 5210 ft 172 kts 216°
2026-04-20 19:31 40.08799 32.95594 5657 ft 189 kts 218°
2026-04-20 19:32 40.07671 32.94516 5878 ft 211 kts 217°
2026-04-20 19:32 40.06438 32.93350 6053 ft 232 kts 217°
2026-04-20 19:32 40.05063 32.92055 6370 ft 247 kts 217°
2026-04-20 19:32 40.03637 32.90732 6768 ft 261 kts 215°
2026-04-20 19:33 40.02102 32.89397 7238 ft 273 kts 214°
2026-04-20 19:33 40.00496 32.88028 7924 ft 279 kts 214°
2026-04-20 19:33 39.98858 32.86635 8660 ft 282 kts 214°
2026-04-20 19:33 39.97201 32.85223 9419 ft 286 kts 214°
2026-04-20 19:34 39.95526 32.83793 10124 ft 290 kts 214°
2026-04-20 19:34 39.93827 32.82340 10806 ft 293 kts 215°
2026-04-20 19:34 39.92112 32.80872 11506 ft 296 kts 215°
2026-04-20 19:34 39.90380 32.79389 12192 ft 299 kts 215°
2026-04-20 19:35 39.88631 32.77891 12892 ft 303 kts 215°
2026-04-20 19:35 39.86857 32.76372 13540 ft 309 kts 215°
2026-04-20 19:35 39.85004 32.74783 13724 ft 330 kts 215°
2026-04-20 19:35 39.83030 32.73091 13891 ft 350 kts 215°
2026-04-20 19:36 39.80966 32.71324 14027 ft 368 kts 215°
2026-04-20 19:36 39.78771 32.69448 14166 ft 386 kts 215°
2026-04-20 19:36 39.76481 32.67493 14435 ft 398 kts 215°
2026-04-20 19:36 39.74148 32.65505 14944 ft 402 kts 215°
2026-04-20 19:37 39.71804 32.63509 15549 ft 404 kts 215°
2026-04-20 19:37 39.69444 32.61502 16108 ft 407 kts 215°
2026-04-20 19:37 39.67067 32.59480 16672 ft 409 kts 215°
2026-04-20 19:37 39.64675 32.57446 17221 ft 412 kts 215°
2026-04-20 19:38 39.62269 32.55402 17751 ft 415 kts 215°
2026-04-20 19:38 39.59845 32.53344 18291 ft 418 kts 214°
2026-04-20 19:38 39.57401 32.51271 18754 ft 421 kts 214°
2026-04-20 19:38 39.54946 32.49190 19193 ft 424 kts 215°
2026-04-20 19:39 39.52497 32.47117 19638 ft 426 kts 215°
2026-04-20 19:39 39.50004 32.45007 20082 ft 429 kts 215°
2026-04-20 19:39 39.47499 32.42889 20516 ft 432 kts 215°
2026-04-20 19:39 39.44942 32.40729 20946 ft 434 kts 215°
2026-04-20 19:40 39.42437 32.38614 21353 ft 437 kts 214°
2026-04-20 19:40 39.39879 32.36458 21749 ft 440 kts 214°
2026-04-20 19:40 39.37248 32.34418 22138 ft 444 kts 210°
2026-04-20 19:40 39.34493 32.32563 22457 ft 448 kts 208°
2026-04-20 19:41 39.31678 32.30767 22840 ft 451 kts 208°
2026-04-20 19:41 39.28848 32.28988 23245 ft 453 kts 208°
2026-04-20 19:41 39.26005 32.27194 23610 ft 455 kts 208°
2026-04-20 19:41 39.23151 32.25376 23919 ft 458 kts 208°
2026-04-20 19:42 39.20293 32.23540 24235 ft 459 kts 208°
2026-04-20 19:42 39.17463 32.21712 24539 ft 461 kts 208°
2026-04-20 19:42 39.14588 32.19849 24839 ft 463 kts 208°
2026-04-20 19:42 39.11703 32.17977 25130 ft 465 kts 208°
2026-04-20 19:43 39.08811 32.16102 25416 ft 467 kts 208°
2026-04-20 19:43 39.05893 32.14212 25695 ft 469 kts 208°
2026-04-20 19:43 39.02976 32.12323 25975 ft 470 kts 208°
2026-04-20 19:43 39.00045 32.10430 26251 ft 472 kts 208°
2026-04-20 19:44 38.97107 32.08533 26516 ft 474 kts 208°
2026-04-20 19:44 38.94155 32.06629 26779 ft 475 kts 208°
2026-04-20 19:44 38.91196 32.04723 27100 ft 475 kts 208°
2026-04-20 19:44 38.88244 32.02824 27528 ft 473 kts 208°
2026-04-20 19:45 38.85308 32.00937 27979 ft 470 kts 208°
2026-04-20 19:45 38.82383 31.99059 28366 ft 469 kts 208°
2026-04-20 19:45 38.79463 31.97184 28727 ft 469 kts 208°
2026-04-20 19:45 38.76583 31.95338 29078 ft 468 kts 208°
2026-04-20 19:46 38.73680 31.93479 29592 ft 464 kts 208°
2026-04-20 19:46 38.70802 31.91636 30044 ft 462 kts 208°
2026-04-20 19:46 38.67926 31.89797 30340 ft 462 kts 208°
2026-04-20 19:46 38.65056 31.87963 30599 ft 462 kts 208°
2026-04-20 19:47 38.62184 31.86129 30914 ft 460 kts 208°
2026-04-20 19:47 38.59327 31.84307 31257 ft 458 kts 208°
2026-04-20 19:47 38.56476 31.82491 31582 ft 457 kts 208°
2026-04-20 19:47 38.53629 31.80678 31876 ft 456 kts 208°
2026-04-20 19:48 38.50785 31.78869 32161 ft 455 kts 208°
2026-04-20 19:48 38.47951 31.77068 32477 ft 454 kts 208°
2026-04-20 19:48 38.46084 31.75882 32673 ft 453 kts 208°
2026-04-20 19:48 38.42346 31.73510 33066 ft 451 kts 208°
2026-04-20 19:49 38.39540 31.71731 33346 ft 451 kts 208°
2026-04-20 19:49 38.36734 31.69954 33634 ft 450 kts 208°
2026-04-20 19:49 38.34843 31.68758 33823 ft 449 kts 208°
2026-04-20 19:49 38.32075 31.67007 34091 ft 448 kts 208°
2026-04-20 19:50 38.29280 31.65241 34285 ft 447 kts 208°
2026-04-20 19:50 38.26488 31.63477 34440 ft 448 kts 208°
2026-04-20 19:50 38.23691 31.61712 34608 ft 449 kts 208°
2026-04-20 19:50 38.20894 31.59949 34798 ft 448 kts 209°
2026-04-20 19:51 38.18101 31.58190 34976 ft 448 kts 209°
2026-04-20 19:51 38.15304 31.56429 35146 ft 448 kts 209°
2026-04-20 19:51 38.12503 31.54679 35315 ft 449 kts 207°
2026-04-20 19:51 38.09593 31.53214 35455 ft 452 kts 200°
2026-04-20 19:52 38.06562 31.52107 35586 ft 454 kts 198°
2026-04-20 19:52 38.03511 31.51065 35721 ft 455 kts 198°
2026-04-20 19:52 38.00450 31.50038 35894 ft 454 kts 198°
2026-04-20 19:52 37.97394 31.49005 36079 ft 454 kts 198°
2026-04-20 19:53 37.94342 31.47959 36222 ft 454 kts 198°
2026-04-20 19:53 37.91329 31.46912 36348 ft 454 kts 199°
2026-04-20 19:53 37.88282 31.45844 36463 ft 455 kts 199°
2026-04-20 19:53 37.85219 31.44764 36595 ft 455 kts 199°
2026-04-20 19:54 37.82168 31.43688 36754 ft 455 kts 199°
2026-04-20 19:54 37.79124 31.42613 36908 ft 454 kts 199°
2026-04-20 19:54 37.76073 31.41537 36982 ft 455 kts 199°
2026-04-20 19:55 37.69976 31.39391 36978 ft 453 kts 199°
2026-04-20 19:55 37.63908 31.37261 36984 ft 451 kts 199°
2026-04-20 19:56 37.57851 31.35138 36980 ft 450 kts 199°
2026-04-20 19:56 37.51854 31.33048 36968 ft 450 kts 199°
2026-04-20 19:57 37.45817 31.30936 36967 ft 450 kts 199°
2026-04-20 19:57 37.39773 31.28822 36974 ft 451 kts 199°
2026-04-20 19:58 37.33725 31.26714 36951 ft 451 kts 199°
2026-04-20 19:58 37.27668 31.24609 36963 ft 451 kts 199°
2026-04-20 19:59 37.21610 31.22507 36968 ft 452 kts 199°
2026-04-20 19:59 37.15543 31.20405 36937 ft 452 kts 199°
2026-04-20 20:00 37.09510 31.18318 36936 ft 453 kts 199°
2026-04-20 20:00 37.03434 31.16220 36935 ft 453 kts 199°
2026-04-20 20:01 36.97347 31.14122 36938 ft 454 kts 200°
2026-04-20 20:01 36.91251 31.12024 36938 ft 454 kts 199°
2026-04-20 20:02 36.85149 31.09927 36941 ft 455 kts 199°
2026-04-20 20:02 36.79038 31.07831 36914 ft 455 kts 200°
2026-04-20 20:03 36.72937 31.05742 36931 ft 455 kts 200°
2026-04-20 20:03 36.66838 31.03657 36935 ft 454 kts 200°
2026-04-20 20:04 36.60772 31.01586 36937 ft 455 kts 200°
2026-04-20 20:04 36.54663 30.99504 36934 ft 454 kts 200°
2026-04-20 20:05 36.48555 30.97426 36938 ft 454 kts 200°
2026-04-20 20:05 36.42459 30.95356 36943 ft 454 kts 200°
2026-04-20 20:06 36.36389 30.93297 36941 ft 454 kts 200°
2026-04-20 20:06 36.30283 30.91229 36939 ft 455 kts 200°
2026-04-20 20:07 36.24166 30.89161 36943 ft 455 kts 200°
2026-04-20 20:07 36.18046 30.87096 36940 ft 456 kts 200°
2026-04-20 20:08 36.11914 30.85029 36949 ft 456 kts 200°
2026-04-20 20:08 36.05812 30.83010 36950 ft 459 kts 197°
2026-04-20 20:09 35.99378 30.82509 36959 ft 469 kts 182°
2026-04-20 20:09 35.92845 30.83008 36956 ft 470 kts 181°
2026-04-20 20:10 35.86310 30.83488 36954 ft 470 kts 182°
2026-04-20 20:10 35.79775 30.83902 36938 ft 470 kts 182°
2026-04-20 20:11 35.73230 30.84297 36953 ft 470 kts 182°
2026-04-20 20:11 35.66692 30.84695 36961 ft 470 kts 182°
2026-04-20 20:12 35.60153 30.85084 36965 ft 470 kts 183°
2026-04-20 20:12 35.53667 30.85319 36955 ft 469 kts 184°
2026-04-20 20:13 35.43885 30.85613 36963 ft 468 kts 184°
2026-04-20 20:13 35.37368 30.85831 36970 ft 468 kts 184°
2026-04-20 20:14 35.30862 30.86055 36968 ft 468 kts 184°
2026-04-20 20:14 35.24358 30.86277 36966 ft 468 kts 184°
2026-04-20 20:15 35.17840 30.86498 36971 ft 468 kts 184°
2026-04-20 20:15 35.11322 30.86712 36966 ft 468 kts 184°
2026-04-20 20:16 35.04835 30.86919 36978 ft 469 kts 184°
2026-04-20 20:16 34.98300 30.87127 36979 ft 470 kts 184°
2026-04-20 20:17 34.91752 30.87338 36955 ft 471 kts 184°
2026-04-20 20:17 34.85205 30.87548 36976 ft 471 kts 184°
2026-04-20 20:18 34.78652 30.87758 36982 ft 471 kts 184°
2026-04-20 20:18 34.72091 30.87968 36983 ft 472 kts 184°
2026-04-20 20:19 34.65567 30.88177 36978 ft 472 kts 185°
2026-04-20 20:19 34.58986 30.88407 36983 ft 473 kts 184°
2026-04-20 20:20 34.52401 30.88748 36986 ft 473 kts 184°
2026-04-20 20:20 34.45817 30.89105 36959 ft 473 kts 184°
2026-04-20 20:21 34.39275 30.89443 36982 ft 473 kts 184°
2026-04-20 20:21 34.32700 30.89775 36990 ft 473 kts 184°
2026-04-20 20:22 34.26115 30.90108 36991 ft 473 kts 184°
2026-04-20 20:22 34.19521 30.90455 36993 ft 474 kts 184°
2026-04-20 20:23 34.12933 30.90825 36992 ft 474 kts 184°
2026-04-20 20:23 34.06379 30.91190 36994 ft 474 kts 184°
2026-04-20 20:24 33.99781 30.91554 36978 ft 474 kts 184°
2026-04-20 20:24 33.93188 30.91905 36992 ft 473 kts 185°
2026-04-20 20:25 33.86608 30.92159 36997 ft 473 kts 185°
2026-04-20 20:25 33.80066 30.92386 36999 ft 472 kts 185°
2026-04-20 20:26 33.73483 30.92625 36994 ft 472 kts 185°
2026-04-20 20:26 33.66918 30.92870 37005 ft 472 kts 185°
2026-04-20 20:27 33.60345 30.93118 37004 ft 472 kts 185°
2026-04-20 20:27 33.53821 30.93364 36982 ft 472 kts 186°
2026-04-20 20:28 33.47259 30.93610 36999 ft 471 kts 186°
2026-04-20 20:28 33.40699 30.93855 37013 ft 471 kts 186°
2026-04-20 20:29 33.34141 30.94100 37008 ft 472 kts 186°
2026-04-20 20:29 33.27580 30.94346 37010 ft 471 kts 186°
2026-04-20 20:30 33.21015 30.94590 37012 ft 471 kts 186°
2026-04-20 20:30 33.14505 30.94832 37022 ft 471 kts 186°
2026-04-20 20:31 33.07941 30.95144 36993 ft 474 kts 184°
2026-04-20 20:31 33.01354 30.95855 37015 ft 475 kts 182°
2026-04-20 20:32 32.94773 30.96663 37020 ft 475 kts 182°
2026-04-20 20:32 32.88191 30.97435 37019 ft 474 kts 182°
2026-04-20 20:33 32.82729 30.98051 37006 ft 473 kts 183°
2026-04-20 20:33 32.76167 30.98779 37016 ft 472 kts 183°
2026-04-20 20:34 32.69627 30.99503 37022 ft 472 kts 183°
2026-04-20 20:34 32.63128 31.00222 37033 ft 471 kts 183°
2026-04-20 20:35 32.56592 31.00947 37021 ft 470 kts 183°
2026-04-20 20:35 32.50076 31.01667 37026 ft 470 kts 183°
2026-04-20 20:36 32.43563 31.02387 37033 ft 470 kts 183°
2026-04-20 20:36 32.37048 31.03105 36999 ft 470 kts 183°
2026-04-20 20:37 32.30538 31.03822 37023 ft 470 kts 183°
2026-04-20 20:37 32.24063 31.04534 37036 ft 470 kts 183°
2026-04-20 20:38 32.17553 31.05248 37034 ft 470 kts 183°
2026-04-20 20:38 32.11194 31.05946 37013 ft 470 kts 184°
2026-04-20 20:39 32.04703 31.06657 37034 ft 470 kts 184°
2026-04-20 20:39 31.98182 31.07370 37047 ft 470 kts 184°
2026-04-20 20:40 31.91707 31.08077 37048 ft 470 kts 184°
2026-04-20 20:40 31.85184 31.08789 37035 ft 471 kts 184°
2026-04-20 20:41 31.78650 31.09502 37040 ft 471 kts 184°
2026-04-20 20:41 31.72122 31.10213 37043 ft 471 kts 184°
2026-04-20 20:42 31.65587 31.10923 37046 ft 472 kts 184°
2026-04-20 20:42 31.59052 31.11633 37036 ft 471 kts 184°
2026-04-20 20:43 31.52533 31.12352 37032 ft 469 kts 182°
2026-04-20 20:43 31.46081 31.13462 37036 ft 467 kts 179°
2026-04-20 20:44 31.39690 31.14715 37008 ft 464 kts 180°
2026-04-20 20:44 31.33376 31.15902 37037 ft 461 kts 180°
2026-04-20 20:45 31.27038 31.17061 37042 ft 461 kts 180°
2026-04-20 20:45 31.20698 31.18228 37052 ft 462 kts 180°
2026-04-20 20:46 31.14331 31.19419 37015 ft 464 kts 180°
2026-04-20 20:46 31.07940 31.20616 37042 ft 466 kts 180°
2026-04-20 20:47 31.01509 31.21817 37058 ft 469 kts 180°
2026-04-20 20:47 30.95035 31.23023 37052 ft 472 kts 180°
2026-04-20 20:48 30.88968 31.24152 37023 ft 474 kts 180°
2026-04-20 20:48 30.82450 31.25364 37039 ft 475 kts 180°
2026-04-20 20:49 30.75918 31.26577 37044 ft 475 kts 180°
2026-04-20 20:49 30.69379 31.27790 37044 ft 475 kts 180°
2026-04-20 20:50 30.62856 31.28998 37022 ft 474 kts 181°
2026-04-20 20:50 30.56349 31.30202 37035 ft 472 kts 181°
2026-04-20 20:51 30.49873 31.31397 37039 ft 470 kts 181°
2026-04-20 20:51 30.43463 31.32576 37051 ft 469 kts 181°
2026-04-20 20:52 30.37027 31.33748 37016 ft 467 kts 181°
2026-04-20 20:52 30.30612 31.34914 37038 ft 465 kts 181°
2026-04-20 20:53 30.24213 31.36076 37050 ft 465 kts 181°
2026-04-20 20:53 30.17827 31.37235 37049 ft 465 kts 181°
2026-04-20 20:54 30.11431 31.38575 37024 ft 476 kts 173°
2026-04-20 20:54 30.08291 31.39945 37055 ft 488 kts 163°
2026-04-20 20:54 30.05303 31.41901 37040 ft 501 kts 153°
2026-04-20 20:55 29.99708 31.46687 37049 ft 506 kts 150°
2026-04-20 20:55 29.94099 31.51625 37059 ft 507 kts 150°
2026-04-20 20:56 29.88460 31.56509 37045 ft 507 kts 151°
2026-04-20 20:56 29.82779 31.61357 37011 ft 508 kts 152°
2026-04-20 20:57 29.77085 31.66191 37048 ft 508 kts 152°
2026-04-20 20:57 29.71392 31.71018 37056 ft 508 kts 152°
2026-04-20 20:58 29.65696 31.75846 37040 ft 508 kts 152°
2026-04-20 20:58 29.60037 31.80637 37045 ft 508 kts 152°
2026-04-20 20:59 29.54344 31.85450 37051 ft 507 kts 152°
2026-04-20 20:59 29.48675 31.90244 37029 ft 506 kts 153°
2026-04-20 21:00 29.43006 31.95017 37046 ft 505 kts 153°
2026-04-20 21:00 29.37338 31.99784 37055 ft 505 kts 153°
2026-04-20 21:01 29.31666 32.04550 37064 ft 505 kts 153°
2026-04-20 21:01 29.25990 32.09314 37048 ft 505 kts 153°
2026-04-20 21:02 29.20349 32.14042 37051 ft 505 kts 153°
2026-04-20 21:02 29.14658 32.18805 37036 ft 505 kts 153°
2026-04-20 21:03 29.08978 32.23553 37043 ft 505 kts 153°
2026-04-20 21:03 29.03296 32.28296 37045 ft 505 kts 153°
2026-04-20 21:04 28.97624 32.33023 37036 ft 504 kts 153°
2026-04-20 21:04 28.91991 32.37711 37041 ft 504 kts 153°
2026-04-20 21:05 28.86308 32.42431 36998 ft 505 kts 154°
2026-04-20 21:05 28.80634 32.47156 37063 ft 503 kts 154°
2026-04-20 21:06 28.74953 32.51869 37031 ft 505 kts 154°
2026-04-20 21:06 28.69260 32.56568 37031 ft 506 kts 154°
2026-04-20 21:07 28.63592 32.61247 37033 ft 507 kts 154°
2026-04-20 21:07 28.57878 32.65964 37022 ft 507 kts 154°
2026-04-20 21:08 28.52156 32.70683 37015 ft 507 kts 154°
2026-04-20 21:08 28.46434 32.75394 37010 ft 508 kts 154°
2026-04-20 21:09 28.40707 32.80102 37017 ft 508 kts 154°
2026-04-20 21:09 28.34957 32.84822 37008 ft 509 kts 154°
2026-04-20 21:10 28.29212 32.89532 37004 ft 510 kts 155°
2026-04-20 21:10 28.23497 32.94213 36953 ft 510 kts 155°
2026-04-20 21:11 28.17748 32.98916 36997 ft 509 kts 155°
2026-04-20 21:11 28.11996 33.03612 36997 ft 509 kts 155°
2026-04-20 21:12 28.06246 33.08302 36993 ft 509 kts 155°
2026-04-20 21:12 28.00509 33.12975 36991 ft 508 kts 155°
2026-04-20 21:13 27.94794 33.17621 36963 ft 508 kts 155°
2026-04-20 21:13 27.89059 33.22279 36961 ft 506 kts 156°
2026-04-20 21:14 27.83339 33.26919 36963 ft 506 kts 156°
2026-04-20 21:14 27.77623 33.31549 36974 ft 506 kts 156°
2026-04-20 21:15 27.71890 33.36188 36969 ft 506 kts 156°
2026-04-20 21:15 27.66154 33.40822 36967 ft 506 kts 156°
2026-04-20 21:16 27.60434 33.45440 36966 ft 506 kts 156°
2026-04-20 21:16 27.54753 33.50023 36955 ft 505 kts 156°
2026-04-20 21:17 27.49026 33.54611 36964 ft 504 kts 156°
2026-04-20 21:17 27.43322 33.59190 36981 ft 502 kts 156°
2026-04-20 21:18 27.37614 33.63768 36976 ft 503 kts 156°
2026-04-20 21:18 27.32868 33.67567 36977 ft 504 kts 156°
2026-04-20 21:19 27.27144 33.72142 36932 ft 505 kts 157°
2026-04-20 21:20 27.18851 33.79637 36979 ft 531 kts 140°
2026-04-20 21:20 27.16034 33.84236 36951 ft 550 kts 124°
2026-04-20 21:20 27.14944 33.86891 36975 ft 556 kts 118°
2026-04-20 21:21 27.12161 33.95033 36965 ft 560 kts 116°
2026-04-20 21:21 27.09409 34.03148 36957 ft 560 kts 117°
2026-04-20 21:22 27.06519 34.11269 36942 ft 560 kts 118°
2026-04-20 21:22 27.03601 34.19368 36940 ft 561 kts 118°
2026-04-20 21:23 27.00687 34.27490 36933 ft 560 kts 118°
2026-04-20 21:23 26.97784 34.35594 36924 ft 560 kts 118°
2026-04-20 21:24 26.94876 34.43699 36923 ft 559 kts 118°
2026-04-20 21:24 26.91968 34.51782 36916 ft 558 kts 118°
2026-04-20 21:25 26.89083 34.59783 36921 ft 557 kts 118°
2026-04-20 21:25 26.86178 34.67825 36918 ft 556 kts 118°
2026-04-20 21:26 26.83266 34.75867 36902 ft 556 kts 118°
2026-04-20 21:26 26.80357 34.83888 36910 ft 555 kts 118°
2026-04-20 21:27 26.77445 34.91901 36907 ft 556 kts 118°
2026-04-20 21:27 26.74523 34.99904 36887 ft 556 kts 118°
2026-04-20 21:28 26.71605 35.07859 36899 ft 556 kts 119°
2026-04-20 21:28 26.68662 35.15870 36896 ft 557 kts 119°
2026-04-20 21:29 26.65716 35.23878 36893 ft 558 kts 119°
2026-04-20 21:29 26.62760 35.31902 36893 ft 558 kts 119°
2026-04-20 21:30 26.59797 35.39927 36898 ft 559 kts 119°
2026-04-20 21:30 26.56824 35.47962 36894 ft 560 kts 119°
2026-04-20 21:31 26.53797 35.55982 36875 ft 560 kts 120°
2026-04-20 21:31 26.50719 35.63981 36883 ft 560 kts 120°
2026-04-20 21:32 26.47640 35.71978 36871 ft 561 kts 120°
2026-04-20 21:32 26.44566 35.79979 36822 ft 561 kts 120°
2026-04-20 21:33 26.41495 35.87971 36872 ft 559 kts 120°
2026-04-20 21:33 26.38439 35.95899 36874 ft 559 kts 120°
2026-04-20 21:34 26.35360 36.03872 36875 ft 559 kts 120°
2026-04-20 21:34 26.32283 36.11826 36871 ft 559 kts 120°
2026-04-20 21:35 26.29200 36.19778 36877 ft 558 kts 121°
2026-04-20 21:35 26.26115 36.27721 36865 ft 558 kts 121°
2026-04-20 21:36 26.23028 36.35652 36881 ft 557 kts 121°
2026-04-20 21:36 26.19964 36.43514 36884 ft 557 kts 121°
2026-04-20 21:37 26.16790 36.51366 36875 ft 552 kts 125°
2026-04-20 21:37 26.13140 36.58850 36882 ft 548 kts 128°
2026-04-20 21:38 26.09375 36.66226 36875 ft 548 kts 128°
2026-04-20 21:38 26.05655 36.73651 36879 ft 549 kts 127°
2026-04-20 21:39 26.02000 36.81058 36871 ft 549 kts 127°
2026-04-20 21:39 25.98326 36.88511 36879 ft 549 kts 127°
2026-04-20 21:40 25.94643 36.95953 36884 ft 549 kts 127°
2026-04-20 21:40 25.90959 37.03378 36882 ft 549 kts 127°
2026-04-20 21:41 25.87289 37.10762 36886 ft 549 kts 127°
2026-04-20 21:41 25.83597 37.18183 36888 ft 549 kts 127°
2026-04-20 21:42 25.79898 37.25604 36884 ft 549 kts 127°
2026-04-20 21:42 25.76189 37.33043 36686 ft 553 kts 127°
2026-04-20 21:42 25.74328 37.36775 36445 ft 553 kts 127°
2026-04-20 21:43 25.72472 37.40502 36164 ft 550 kts 126°
2026-04-20 21:43 25.70630 37.44204 35919 ft 546 kts 126°
2026-04-20 21:43 25.68791 37.47893 35674 ft 547 kts 126°
2026-04-20 21:43 25.66939 37.51595 35439 ft 551 kts 126°
2026-04-20 21:44 25.65096 37.55273 35232 ft 553 kts 126°
2026-04-20 21:44 25.63223 37.59011 35014 ft 555 kts 126°
2026-04-20 21:44 25.61345 37.62777 34766 ft 557 kts 126°
2026-04-20 21:44 25.59463 37.66532 34554 ft 557 kts 126°
2026-04-20 21:45 25.57580 37.70281 34331 ft 557 kts 126°
2026-04-20 21:45 25.55688 37.74044 34094 ft 557 kts 126°
2026-04-20 21:45 25.53803 37.77790 33869 ft 555 kts 125°
2026-04-20 21:45 25.51929 37.81519 33601 ft 554 kts 125°
2026-04-20 21:46 25.50056 37.85242 33343 ft 551 kts 126°
2026-04-20 21:46 25.48219 37.88889 33099 ft 549 kts 126°
2026-04-20 21:46 25.46337 37.92623 32837 ft 547 kts 126°
2026-04-20 21:46 25.44512 37.96239 32595 ft 545 kts 126°
2026-04-20 21:47 25.42661 37.99904 32346 ft 543 kts 126°
2026-04-20 21:47 25.40818 38.03548 32097 ft 542 kts 126°
2026-04-20 21:47 25.38973 38.07192 31857 ft 545 kts 126°
2026-04-20 21:47 25.37114 38.10858 31624 ft 546 kts 126°
2026-04-20 21:48 25.35264 38.14509 31010 ft 545 kts 126°
2026-04-20 21:48 25.33410 38.18167 30344 ft 544 kts 126°
2026-04-20 21:48 25.31557 38.21818 29513 ft 545 kts 126°
2026-04-20 21:48 25.29703 38.25469 28661 ft 545 kts 125°
2026-04-20 21:49 25.27849 38.29119 27811 ft 544 kts 125°
2026-04-20 21:49 25.26001 38.32753 26950 ft 543 kts 125°
2026-04-20 21:49 25.24152 38.36385 26166 ft 540 kts 124°
2026-04-20 21:49 25.22343 38.39946 25553 ft 523 kts 124°
2026-04-20 21:50 25.20584 38.43404 24934 ft 508 kts 124°
2026-04-20 21:50 25.18873 38.46759 24338 ft 495 kts 124°
2026-04-20 21:50 25.17220 38.49995 23763 ft 483 kts 124°
2026-04-20 21:50 25.15584 38.53193 23119 ft 475 kts 124°
2026-04-20 21:51 25.13961 38.56362 22481 ft 472 kts 124°
2026-04-20 21:51 25.12343 38.59524 21889 ft 474 kts 124°
2026-04-20 21:51 25.10712 38.62710 21285 ft 477 kts 124°
2026-04-20 21:51 25.09086 38.65886 20683 ft 473 kts 124°
2026-04-20 21:52 25.07478 38.69033 20109 ft 468 kts 124°
2026-04-20 21:52 25.05930 38.72129 19764 ft 450 kts 124°
2026-04-20 21:52 25.04434 38.75051 19642 ft 429 kts 125°
2026-04-20 21:52 25.02960 38.77886 19361 ft 422 kts 126°
2026-04-20 21:53 25.01519 38.80652 18816 ft 415 kts 125°
2026-04-20 21:53 25.00091 38.83428 17978 ft 416 kts 125°
2026-04-20 21:53 24.98686 38.86164 17232 ft 412 kts 124°
2026-04-20 21:53 24.97288 38.88889 16607 ft 405 kts 124°
2026-04-20 21:54 24.95878 38.91558 16081 ft 401 kts 129°
2026-04-20 21:54 24.94234 38.94027 15520 ft 396 kts 135°
2026-04-20 21:54 24.92471 38.96341 15131 ft 390 kts 137°
2026-04-20 21:54 24.90736 38.98565 14785 ft 375 kts 137°
2026-04-20 21:55 24.89077 39.00713 14457 ft 362 kts 137°
2026-04-20 21:55 24.87488 39.02803 14202 ft 348 kts 136°
2026-04-20 21:55 24.85970 39.04825 13943 ft 337 kts 136°
2026-04-20 21:55 24.84510 39.06786 13658 ft 327 kts 137°
2026-04-20 21:56 24.83080 39.08700 13357 ft 320 kts 137°
2026-04-20 21:56 24.81674 39.10582 13076 ft 316 kts 137°
2026-04-20 21:56 24.80288 39.12441 12810 ft 312 kts 137°
2026-04-20 21:56 24.78930 39.14268 12528 ft 304 kts 137°
2026-04-20 21:57 24.77615 39.16033 12258 ft 293 kts 137°
2026-04-20 21:57 24.76432 39.17820 12029 ft 290 kts 121°
2026-04-20 21:57 24.75931 39.19973 12003 ft 292 kts 101°
2026-04-20 21:57 24.75989 39.22241 12000 ft 302 kts 87°
2026-04-20 21:58 24.76260 39.24558 12001 ft 305 kts 85°
2026-04-20 21:58 24.76560 39.26840 11835 ft 300 kts 85°
2026-04-20 21:58 24.76849 39.29083 11492 ft 297 kts 85°
2026-04-20 21:58 24.77133 39.31318 11140 ft 295 kts 86°
2026-04-20 21:59 24.77407 39.33548 10791 ft 293 kts 86°
2026-04-20 21:59 24.77675 39.35759 10426 ft 291 kts 86°
2026-04-20 21:59 24.77933 39.37936 10130 ft 283 kts 87°
2026-04-20 21:59 24.78183 39.40061 9783 ft 278 kts 87°
2026-04-20 22:00 24.78429 39.42153 9467 ft 273 kts 86°
2026-04-20 22:00 24.78673 39.44213 9138 ft 268 kts 86°
2026-04-20 22:00 24.78906 39.46248 8808 ft 267 kts 86°
2026-04-20 22:00 24.79133 39.48244 8519 ft 264 kts 86°
2026-04-20 22:01 24.79360 39.50236 8215 ft 261 kts 85°
2026-04-20 22:01 24.79586 39.52208 7919 ft 258 kts 85°
2026-04-20 22:01 24.79809 39.54148 7627 ft 253 kts 85°
2026-04-20 22:01 24.80029 39.56060 7331 ft 250 kts 84°
2026-04-20 22:02 24.80244 39.57943 7019 ft 247 kts 84°
2026-04-20 22:02 24.80461 39.59804 6705 ft 243 kts 83°
2026-04-20 22:02 24.80674 39.61637 6398 ft 240 kts 84°
2026-04-20 22:02 24.80790 39.63450 6077 ft 236 kts 98°
2026-04-20 22:03 24.80092 39.64996 5772 ft 222 kts 143°
2026-04-20 22:03 24.78761 39.65694 5578 ft 209 kts 169°
2026-04-20 22:03 24.77366 39.66084 5310 ft 202 kts 168°
2026-04-20 22:03 24.76024 39.66426 5312 ft 198 kts 173°
2026-04-20 22:04 24.74664 39.66705 5289 ft 199 kts 173°
2026-04-20 22:04 24.73321 39.66988 5158 ft 193 kts 172°
2026-04-20 22:04 24.72015 39.67264 4916 ft 189 kts 173°
2026-04-20 22:04 24.70747 39.67532 4669 ft 181 kts 172°
2026-04-20 22:05 24.69552 39.67788 4486 ft 174 kts 172°
2026-04-20 22:05 24.68372 39.68040 4242 ft 174 kts 172°
2026-04-20 22:05 24.67195 39.68291 4006 ft 170 kts 171°
2026-04-20 22:05 24.66044 39.68537 3791 ft 168 kts 171°
2026-04-20 22:06 24.64889 39.68783 3587 ft 170 kts 171°
2026-04-20 22:06 24.64099 39.68952 3424 ft 171 kts 171°
2026-04-20 22:06 24.62946 39.69198 3221 ft 171 kts 169°
2026-04-20 22:06 24.61765 39.69456 3029 ft 171 kts 171°
2026-04-20 22:07 24.60607 39.69699 2748 ft 167 kts 171°
2026-04-20 22:07 24.59482 39.69936 2502 ft 163 kts 171°
2026-04-20 22:07 24.58377 39.70176 2252 ft 160 kts 171°
2026-04-20 22:07 24.57263 39.70431 2471 ft 169 kts 169°
2026-04-20 22:08 24.56067 39.70726 3028 ft 180 kts 170°
2026-04-20 22:08 24.54822 39.71008 3603 ft 191 kts 171°
2026-04-20 22:08 24.53414 39.71314 3902 ft 220 kts 171°
2026-04-20 22:08 24.51858 39.71797 4111 ft 247 kts 152°
2026-04-20 22:09 24.50498 39.72982 4576 ft 257 kts 145°
2026-04-20 22:09 24.48919 39.73906 5221 ft 259 kts 158°
2026-04-20 22:09 24.47284 39.74764 5840 ft 260 kts 157°
2026-04-20 22:09 24.45669 39.75670 6162 ft 261 kts 156°
2026-04-20 22:10 24.44021 39.76617 6214 ft 281 kts 156°
2026-04-20 22:10 24.42235 39.77655 6203 ft 288 kts 156°
2026-04-20 22:10 24.40507 39.78670 6183 ft 276 kts 156°
2026-04-20 22:10 24.38859 39.79651 6171 ft 265 kts 152°
2026-04-20 22:11 24.37518 39.80981 6195 ft 265 kts 132°
2026-04-20 22:11 24.36507 39.82696 6193 ft 271 kts 119°
2026-04-20 22:11 24.35835 39.84658 6200 ft 276 kts 106°
2026-04-20 22:11 24.35533 39.86750 6191 ft 280 kts 93°
2026-04-20 22:12 24.35721 39.88877 6197 ft 281 kts 77°
2026-04-20 22:12 24.36343 39.90904 6186 ft 282 kts 62°
2026-04-20 22:12 24.37444 39.92661 6190 ft 279 kts 44°
2026-04-20 22:12 24.38922 39.94008 6187 ft 274 kts 25°
2026-04-20 22:13 24.40596 39.94983 6198 ft 273 kts 26°
2026-04-20 22:13 24.42230 39.96005 6189 ft 274 kts 26°
2026-04-20 22:13 24.43886 39.97047 6187 ft 275 kts 26°
2026-04-20 22:13 24.45587 39.97975 6169 ft 271 kts 11°
2026-04-20 22:14 24.47413 39.98128 6205 ft 261 kts 351°
2026-04-20 22:14 24.49219 39.97912 6193 ft 261 kts 347°
2026-04-20 22:14 24.50996 39.97544 6188 ft 260 kts 343°
2026-04-20 22:14 24.52766 39.97127 6194 ft 260 kts 343°
2026-04-20 22:15 24.54546 39.96722 6192 ft 261 kts 343°
2026-04-20 22:15 24.56325 39.96323 6184 ft 261 kts 343°
2026-04-20 22:15 24.58103 39.95928 6184 ft 260 kts 343°
2026-04-20 22:15 24.59879 39.95536 6186 ft 260 kts 343°
2026-04-20 22:16 24.61651 39.95146 6179 ft 259 kts 344°
2026-04-20 22:16 24.62803 39.94891 6176 ft 259 kts 344°
2026-04-20 22:16 24.64542 39.94499 6183 ft 258 kts 343°
2026-04-20 22:16 24.66308 39.94100 6187 ft 259 kts 344°
2026-04-20 22:17 24.68078 39.93698 6180 ft 260 kts 344°
2026-04-20 22:17 24.69852 39.93311 6191 ft 260 kts 344°
2026-04-20 22:17 24.71624 39.92933 6189 ft 260 kts 345°
2026-04-20 22:17 24.73398 39.92555 6189 ft 259 kts 345°
2026-04-20 22:18 24.75163 39.92179 6187 ft 258 kts 345°
2026-04-20 22:18 24.76927 39.91803 6201 ft 258 kts 345°
2026-04-20 22:18 24.78687 39.91408 6192 ft 257 kts 339°
2026-04-20 22:18 24.80157 39.90415 6202 ft 245 kts 307°
2026-04-20 22:19 24.80904 39.88777 6187 ft 240 kts 279°
2026-04-20 22:19 24.81126 39.86989 6206 ft 239 kts 274°
2026-04-20 22:19 24.81278 39.85165 6195 ft 237 kts 273°
2026-04-20 22:19 24.81378 39.83397 6159 ft 225 kts 268°
2026-04-20 22:20 24.81354 39.81733 6210 ft 213 kts 268°
2026-04-20 22:20 24.81318 39.80287 6205 ft 210 kts 268°
2026-04-20 22:20 24.81280 39.78672 6202 ft 211 kts 268°
2026-04-20 22:20 24.81302 39.77055 6144 ft 213 kts 270°
2026-04-20 22:21 24.81277 39.75400 5906 ft 217 kts 267°
2026-04-20 22:21 24.81227 39.73777 5894 ft 208 kts 267°
2026-04-20 22:21 24.81197 39.72535 5903 ft 201 kts 268°
2026-04-20 22:21 24.81171 39.71002 5910 ft 200 kts 268°
2026-04-20 22:22 24.81148 39.69475 5894 ft 204 kts 268°
2026-04-20 22:22 24.81090 39.67912 5875 ft 206 kts 259°
2026-04-20 22:22 24.80377 39.66586 5773 ft 208 kts 218°
2026-04-20 22:22 24.78994 39.66161 5681 ft 214 kts 179°
2026-04-20 22:23 24.77494 39.66299 5634 ft 219 kts 180°
2026-04-20 22:23 24.75967 39.66469 5567 ft 220 kts 176°
2026-04-20 22:23 24.74464 39.66740 5353 ft 216 kts 173°
2026-04-20 22:23 24.73018 39.67045 5091 ft 206 kts 172°
2026-04-20 22:24 24.71662 39.67338 4847 ft 192 kts 172°
2026-04-20 22:24 24.70375 39.67613 4599 ft 184 kts 172°
2026-04-20 22:24 24.69156 39.67874 4390 ft 171 kts 172°
2026-04-20 22:24 24.67981 39.68124 4156 ft 173 kts 171°
2026-04-20 22:25 24.66808 39.68374 3935 ft 170 kts 171°
2026-04-20 22:25 24.65658 39.68619 3720 ft 167 kts 171°
2026-04-20 22:25 24.64509 39.68864 3511 ft 168 kts 171°
2026-04-20 22:25 24.63354 39.69110 3281 ft 170 kts 171°
2026-04-20 22:26 24.62204 39.69357 3090 ft 171 kts 171°
2026-04-20 22:26 24.61038 39.69605 2840 ft 170 kts 172°
2026-04-20 22:26 24.59916 39.69848 2644 ft 161 kts 171°
2026-04-20 22:27 24.57719 39.70318 2129 ft 158 kts 171°
2026-04-20 22:27 24.56692 39.70535 2070 ft 130 kts 168°
2026-04-20 22:27 24.56013 39.70681 2070 ft 68 kts 169°
2026-04-20 22:27 24.55674 39.70750 2066 ft 45 kts 169°
2026-04-20 22:28 24.55463 39.70799 2067 ft 20 kts 167°
2026-04-20 22:28 24.55335 39.70859 2067 ft 20 kts 147°
2026-04-20 22:28 24.55238 39.70940 2068 ft 12 kts 141°
2026-04-20 22:28 24.55210 39.71019 2069 ft 12 kts 79°
2026-04-20 22:29 24.55225 39.71099 2069 ft 10 kts 76°
2026-04-20 22:29 24.55238 39.71172 2069 ft 10 kts 82°
2026-04-20 22:29 24.55271 39.71227 2069 ft 7 kts
2026-04-20 22:29 24.55311 39.71217 2069 ft 6 kts 346°
2026-04-20 22:30 24.55351 39.71208 2069 ft 6 kts 351°
2026-04-20 22:30 24.55391 39.71200 2069 ft 6 kts 349°
2026-04-20 22:30 24.55430 39.71192 2069 ft 6 kts 349°
2026-04-20 22:30 24.55479 39.71181 2069 ft 9 kts 348°
2026-04-20 22:31 24.55542 39.71168 2069 ft 8 kts 349°
2026-04-20 22:31 24.55594 39.71157 2069 ft 8 kts 350°
2026-04-20 22:31 24.55645 39.71147 2069 ft 7 kts 349°
2026-04-20 22:31 24.55694 39.71136 2069 ft 7 kts 348°
2026-04-20 22:32 24.55723 39.71133 2069 ft 1 kts 22°
2026-04-20 22:32 24.55728 39.71152 2069 ft 6 kts 94°
2026-04-20 22:32 24.55731 39.71200 2069 ft 3 kts 79°
2026-04-20 22:32 24.55734 39.71219 2069 ft 2 kts 78°
2026-04-20 22:33 24.55736 39.71228 2069 ft 2 kts 81°
2026-04-20 22:33 24.55737 39.71235 2069 ft 0 kts 79°